Regional Weather Roundup
Issued by NWS

Home | Current Version | Previous Version | Graphics & Text | Print | Product List | Glossary On
Versions: 1 2 3 4 5 6 7 8 9 10 11 12 13 14 15 16 17 18 19 20 21 22 23 24 25 26 27 28 29 30 31 32 33 34 35 36 37 38 39 40 41 42 43 44 45 46 47 48 49 50
422
ASUS44 KLIX 231410
RWRLA
LOUISIANA WEATHER ROUNDUP
NATIONAL WEATHER SERVICE NEW ORLEANS LA
800 AM CST SUN NOV 23 2014

NOTE: "FAIR" INDICATES FEW OR NO CLOUDS BELOW 12,000 FEET WITH NO
      SIGNIFICANT WEATHER AND/OR OBSTRUCTIONS TO VISIBILITY.
      SKY/WX - SKY CONDITION AND SIGNIFICANT WEATHER.
      TMP - AIR TEMPERATURE.    DP   - DEWPOINT TEMPERATURE.
      RH  - RELATIVE HUMIDITY.  PRES - PRESSURE.
      HX  - HEAT INDEX.         WCI  - WIND CHILL INDEX.

*  THESE STATIONS ARE NOT NWS OR FAA STATIONS AND ARE NOT UNDER
   NWS QUALITY CONTROL.

LAZ040-048-061>063-065-066-069-231500-
SOUTHEAST LOUISIANA

CITY           SKY/WX    TMP DP  RH WIND       PRES   REMARKS
N.O. AUDUBON   NOT AVBL
N.O. INTL ARPT LGT RAIN  65  62  90 S14       29.73S
N.O. LAKEFRONT CLOUDY    65  62  90 SW16      29.73F
N.O. DOWNTOWN* CLOUDY    64  61  88 S7        29.73F
SLIDELL        CLOUDY    68  65  90 S13G20    29.71R
BATON ROUGE    LGT RAIN  65  62  90 SE16      29.59F
BOOTHVILLE     LGT RAIN  62  61  96 W17G31    29.80S
BELLE CHASSE   LGT RAIN  65  63  93 SW13G20   29.73F
BOGALUSA*      HVY RAIN  65  62  90 CALM      29.71F
NEW ROADS*     DRIZZLE   64  63  94 S9        29.62R
GONZALES*      LGT RAIN  64  64 100 SE9       29.64F
HAMMOND*       CLOUDY    66  63  88 S13       29.72S
HOUMA*         PTSUNNY   63  61  94 S6        29.74F
PORT FOURCHON* PTSUNNY   64  61  88 SW8       29.83S FOG

$$

LAZ041-044-053-054-231500-
SOUTHWEST LOUISIANA

CITY           SKY/WX    TMP DP  RH WIND       PRES   REMARKS
LAKE CHARLES   CLOUDY    62  59  90 SW8       29.65R
LAFAYETTE      CLOUDY    62  32  32 SW12      29.67R
PATTERSON      CLOUDY    61  59  94 SE17      29.66F
SALT POINT       N/A     65  60  84 VRB7G22   29.67F
NEW IBERIA     CLOUDY    62  60  93 SW9       29.68R
CHENAULT AIRPK PTSUNNY   61  59  94 SW9       29.66R

$$

LAZ027-028-231500-
CENTRAL LOUISIANA

CITY           SKY/WX    TMP DP  RH WIND       PRES   REMARKS
FORT POLK      CLOUDY    61  59  94 SW17      29.60R
ALEXANDRIA INT HVY RAIN  64  61  90 W30G40    29.49R FOG
ALEXANDRIA     CLOUDY    65  61  87 S15G31    29.51R

$$

LAZ001-002-231500-
NORTHWEST LOUISIANA

CITY           SKY/WX    TMP DP  RH WIND       PRES   REMARKS
SHREVEPORT     LGT RAIN  62  61  96 SW3       29.59R FOG
BARKSDALE AFB  LGT RAIN  62  62 100 S3        29.60R FOG
DTN SHREVEPORT RAIN      62  60  93 CALM      29.60R FOG

$$

LAZ014-016-231500-
NORTHEAST LOUISIANA

CITY           SKY/WX    TMP DP  RH WIND       PRES   REMARKS
MONROE         LGT RAIN  62  61  96 E7        29.58F FOG
TALLULAH       LGT RAIN  62  60  93 E15       29.59F

$$




USA.gov is the U.S. government's official web portal to all federal, state and local government web resources and services.